Regional Weather Roundup
Issued by NWS

Home | Current Version | Previous Version | Text Only | Print | Product List | Glossary Off
Versions: 1 2 3 4 5 6 7 8 9 10 11 12 13 14 15 16 17 18 19 20 21 22 23 24 25 26 27 28 29 30 31 32 33 34 35 36 37 38 39 40 41 42 43 44 45 46 47 48 49 50

000
ASUS43 KMPX 240901
RWRMN
WEATHER ROUNDUP FOR MINNESOTA
NATIONAL WEATHER SERVICE TWIN CITIES/CHANHASSEN MN
400 AM CDT THU APR 24 2014


NOTE: "FAIR" INDICATES FEW OR NO CLOUDS BELOW 12,000 FEET WITH NO
SIGNIFICANT WEATHER AND/OR OBSTRUCTIONS TO VISIBILITY. N/A MEANS
CURRENT SKY AND/OR WEATHER CONDITIONS ARE NOT AVAILABLE.

MNZ060>063-068>070-241000-
   Twin Cities Metro

CITY           SKY/WX    TMP DP  RH WIND       PRES   REMARKS
TWIN CITIES    LGT RAIN  42  40  92 E16       29.85F FOG
ST PAUL        CLOUDY    43  39  86 SE14      29.87F FOG
CRYSTAL        CLOUDY    45  37  73 E16       29.84F
BLAINE         CLOUDY    45  41  87 E9        29.85F
EDEN PRAIRIE   LGT RAIN  44  39  82 E16       29.82F
LAKEVILLE      LGT RAIN  39  37  93 E13       29.84R
SOUTH ST PAUL  CLOUDY    45  40  82 SE8       29.86F HAZE
LAKE ELMO      CLOUDY    43  39  87 SE8       29.88F
$$
MNZ001>005-007-008-013>017-022>024-027-028-241000-
   Northwest Minnesota

CITY           SKY/WX    TMP DP  RH WIND       PRES   REMARKS
BEMIDJI        CLOUDY    35  34  96 E9        29.86S WCI  27
HALLOCK        CLOUDY    39  36  87 SE17      29.81S FOG
ROSEAU         LGT RAIN  37  34  87 SE14      29.88R
WARROAD        CLOUDY    37  34  87 SE12      29.89S
THIEF RVR FALL CLOUDY    37  32  81 E15       29.83F
CROOKSTON      CLOUDY    37  37 100 SE10      29.81S
FOSSTON        DRIZZLE   36  34  93 SE12      29.82F
DETROIT LAKES  DRIZZLE   37  37 100 SE12      29.80F
MOORHEAD       CLOUDY    43  43 100 SE10      29.78F
PARK RAPIDS    CLOUDY    38  37  97 SE9       29.82F
$$
MNZ006-009>011-018-025>026-241000-
   North Central Minnesota

CITY           SKY/WX    TMP DP  RH WIND       PRES   REMARKS
FLAG ISLAND    DRIZZLE   37  36  93 SE8       29.91S
INTL FALLS     CLOUDY    37  35  92 SE9       29.95F
WASKISH        CLOUDY    36  36 100 E12       29.89F
LONGVILLE      CLOUDY    37  36  93 E3        29.87S
GRAND RAPIDS   CLOUDY    36  32  87 E8G17     29.90F
CRANE LAKE     DRIZZLE   34  30  86 CALM      30.01S
ORR            CLOUDY    36  34  93 SE7       29.94F
COOK           DRIZZLE   36  34  93 E5        29.97F
$$
MNZ012-019>021-037-241000-
   Northeast Minnesota

CITY           SKY/WX    TMP DP  RH WIND       PRES   REMARKS
DULUTH         LGT RAIN  37  34  89 E15       29.95F FOG
ELY            LGT RAIN  36  34  93 E3        30.00F
HIBBING        LGT RAIN  35  33  92 E9        29.95F WCI  28
EVELETH        CLOUDY    34  34 100 E3        29.98S FOG
DULUTH HARBOR  MIX PCPN  34  32  93 NE12      30.00F WCI  25
TWO HARBORS    DRIZZLE   36  32  87 E6        29.99F
SILVER BAY     DRIZZLE   34  34 100 CALM      30.01F
GRAND MARAIS     N/A     37  29  72 NE5       30.06R
G MARAIS ARPRT CLOUDY    36  21  55 CALM      30.02S
$$
MNZ029>031-032-039>041-046>048-054>057-064-241000-
   West Central Minnesota

CITY           SKY/WX    TMP DP  RH WIND       PRES   REMARKS
FERGUS FALLS   CLOUDY    41  36  81 SE10      29.76F
WHEATON        CLOUDY    43  39  87 E8        29.78F
MORRIS         CLOUDY    43  37  81 SE13      29.74F
ALEXANDRIA     CLOUDY    40  36  86 SE13G20   29.78F
ELBOW LAKE     CLOUDY    40  37  86 SE12      29.77F
WADENA         CLOUDY    37  36  93 E10       29.80F
GLENWOOD       CLOUDY    39  37  93 E13       29.78F
APPLETON       CLOUDY    43  37  81 SE12      29.74F
BENSON         CLOUDY    43  37  81 SE10G17   29.75F
ORTONVILLE     CLOUDY    41  36  81 SE9       29.74F
MADISON        CLOUDY    45  41  87 E12       29.73F
WILLMAR        CLOUDY    43  37  81 SE20      29.77F
$$
MNZ033>034-036-042>043-049>051-058-059-241000-
   Central Minnesota

CITY           SKY/WX    TMP DP  RH WIND       PRES   REMARKS
ST CLOUD       CLOUDY    43  38  82 E8        29.83F
SAUK CENTRE    CLOUDY    40  36  86 E10       29.79F
PAYNESVILLE    CLOUDY    42  36  80 E14G20    29.79F
AITKIN         CLOUDY    39  36  87 E8        29.87S
PINE RIVER     CLOUDY    37  37 100 SE9       29.89S
STAPLES        CLOUDY    39  36  87 E7        29.82F
LONG PRAIRIE   CLOUDY    39  36  87 E9        29.81F
LITTLE FALLS   CLOUDY    39  36  87 SE8       29.84S
LITCHFIELD     CLOUDY    43  39  87 SE14G20   29.80F
BUFFALO        CLOUDY    43  37  77 E10       29.84F
MAPLE LAKE     CLOUDY    44  39  83 E7G17     29.84F
$$
MNZ037-044-045-052-053-241000-
   East Central Minnesota

CITY           SKY/WX    TMP DP  RH WIND       PRES   REMARKS
PRINCETON      CLOUDY    43  39  87 E8        29.86F
MORA           CLOUDY    37  36  93 E8        29.90S
CAMBRIDGE      DRIZZLE   45  36  70 E7        29.85F
RUSH CITY      CLOUDY    41  37  87 E7        29.89F
MOOSE LAKE     CLOUDY    36  34  93 E5        29.91S
HINCKLEY       CLOUDY    39  37  93 E9        29.91S
CLOQUET        CLOUDY    36  36 100 E8        29.94F
MCGREGOR       CLOUDY    37  36  93 E12       29.90F
$$
MNZ071>073-080-081-089-090-097-098-241000-
   Southwest Minnesota

CITY           SKY/WX    TMP DP  RH WIND       PRES   REMARKS
MONTEVIDEO     CLOUDY    43  41  93 SE15      29.75F
GRANITE FALLS  CLOUDY    43  38  84 E10G18    29.75F
CANBY          DRIZZLE   41  40  96 E8        29.73F
MARSHALL       CLOUDY    45  37  76 SE14      29.71F
REDWOOD FALLS  LGT RAIN  44  39  82 E13G21    29.75F
OLIVIA         DRIZZLE   43  37  81 E13       29.75F
PIPESTONE      LGT RAIN  45  43  93 SE10      29.66F
WINDOM         LGT RAIN  43  41  93 E6        29.72S
WORTHINGTON    CLOUDY    45  37  76 E8        29.71F
JACKSON        RAIN      43  41  93 E10       29.70F
TRACY          DRIZZLE   43  40  90 SE12      29.71F
SLAYTON        LGT RAIN  42  41  99 E12       29.69F
$$
MNZ065>067-074>077-082>085-091>093-241000-
   South Central Minnesota

CITY           SKY/WX    TMP DP  RH WIND       PRES   REMARKS
MANKATO        CLOUDY    43  39  87 SE21      29.79S
NEW ULM        CLOUDY    43  43 100 E13       29.77F
ST JAMES       RAIN      45  41  87 E12       29.74F
FAIRMONT       CLOUDY    43  39  87 SE20      29.74F
GLENCOE        CLOUDY    43  37  80 E10       29.81S
FARIBAULT      RAIN      46  37  71 SE18G28   29.82S
OWATONNA       CLOUDY    43  39  87 SE18G26   29.81R
WASECA         RAIN      41  36  81 SE20G25   29.81S
ALBERT LEA     TSTM      43  43 100 SE17G25   29.81R
$$
MNZ078>079-086>088-094>096-241000-
   Southeast Minnesota

CITY           SKY/WX    TMP DP  RH WIND       PRES   REMARKS
ROCHESTER      RAIN      41  37  86 SE21      29.83F FOG
RED WING       RAIN      43  39  87 SE14G20   29.86F
STANTON        DRIZZLE   43  38  82 SE10      29.83S
DODGE CENTER   CLOUDY    43  41  93 SE20G25   29.82F
WINONA         RAIN      41  37  87 SE15G22   29.91F
AUSTIN         CLOUDY    43  39  87 SE20G26   29.80F
PRESTON        CLOUDY    40  37  86 SE13G23   29.85F
$$
ABBREVIATIONS USED IN REMARKS
   TC - TEMPERATURES IN CELSIUS
  WCI - WIND CHILL INDEX
   HX - HEAT INDEX
  VSB - VISIBILITY
$$


USA.gov is the U.S. government's official web portal to all federal, state and local government web resources and services.